Year,Month,Day,Hour,Minute,Value (Times are PST for temperature in C)
2016,04,21,00,00,15.60
2016,04,21,00,01,15.60
2016,04,21,00,02,15.60
2016,04,21,00,03,15.70
2016,04,21,00,04,15.70
2016,04,21,00,05,15.80
2016,04,21,00,06,15.80
2016,04,21,00,07,15.90
2016,04,21,00,08,16.00
2016,04,21,00,09,16.10
2016,04,21,00,10,16.20
2016,04,21,00,11,16.30
2016,04,21,00,12,16.40
2016,04,21,00,13,16.50
2016,04,21,00,14,16.60
2016,04,21,00,15,16.70
2016,04,21,00,16,16.70
2016,04,21,00,17,16.80
2016,04,21,00,18,16.80
2016,04,21,00,19,16.80
2016,04,21,00,20,16.90
2016,04,21,00,21,16.90
2016,04,21,00,22,16.90
2016,04,21,00,23,16.90
2016,04,21,00,24,16.80
2016,04,21,00,25,16.70
2016,04,21,00,26,16.50
2016,04,21,00,27,16.30
2016,04,21,00,28,16.20
2016,04,21,00,29,16.00
2016,04,21,00,30,15.80
2016,04,21,00,31,15.60
2016,04,21,00,32,15.50
2016,04,21,00,33,15.30
2016,04,21,00,34,15.20
2016,04,21,00,35,15.10
2016,04,21,00,36,15.00
2016,04,21,00,37,14.90
2016,04,21,00,38,14.90
2016,04,21,00,39,14.90
2016,04,21,00,40,14.90
2016,04,21,00,41,14.90
2016,04,21,00,42,15.00
2016,04,21,00,43,15.00
2016,04,21,00,44,15.00
2016,04,21,00,45,15.10
2016,04,21,00,46,15.10
2016,04,21,00,47,15.10
2016,04,21,00,48,15.10
2016,04,21,00,49,15.10
2016,04,21,00,50,15.20
2016,04,21,00,51,15.20
2016,04,21,00,52,15.20
2016,04,21,00,53,15.30
2016,04,21,00,54,15.30
2016,04,21,00,55,15.30
2016,04,21,00,56,15.30
2016,04,21,00,57,15.40
2016,04,21,00,58,15.40
2016,04,21,00,59,15.40
2016,04,21,01,00,15.50
2016,04,21,01,01,15.50
2016,04,21,01,02,15.60
2016,04,21,01,03,15.50
2016,04,21,01,04,15.50
2016,04,21,01,05,15.40
2016,04,21,01,06,15.40
2016,04,21,01,07,15.30
2016,04,21,01,08,15.20
2016,04,21,01,09,15.10
2016,04,21,01,10,15.00
2016,04,21,01,11,15.00
2016,04,21,01,12,14.90
2016,04,21,01,13,14.80
2016,04,21,01,14,14.80
2016,04,21,01,15,14.70
2016,04,21,01,16,14.70
2016,04,21,01,17,14.60
2016,04,21,01,18,14.60
2016,04,21,01,19,14.70
2016,04,21,01,20,14.70
2016,04,21,01,21,14.80
2016,04,21,01,22,14.90
2016,04,21,01,23,14.90
2016,04,21,01,24,14.90
2016,04,21,01,25,15.00
2016,04,21,01,26,15.00
2016,04,21,01,27,15.00
2016,04,21,01,28,15.00
2016,04,21,01,29,15.00
2016,04,21,01,30,15.10
2016,04,21,01,31,15.20
2016,04,21,01,32,15.30
2016,04,21,01,33,15.30
2016,04,21,01,34,15.30
2016,04,21,01,35,15.40
2016,04,21,01,36,15.40
2016,04,21,01,37,15.40
2016,04,21,01,38,15.40
2016,04,21,01,39,15.40
2016,04,21,01,40,15.40
2016,04,21,01,41,15.40
2016,04,21,01,42,15.30
2016,04,21,01,43,15.30
2016,04,21,01,44,15.30
2016,04,21,01,45,15.20
2016,04,21,01,46,15.20
2016,04,21,01,47,15.20
2016,04,21,01,48,15.20
2016,04,21,01,49,15.20
2016,04,21,01,50,15.20
2016,04,21,01,51,15.20
2016,04,21,01,52,15.30
2016,04,21,01,53,15.30
2016,04,21,01,54,15.30
2016,04,21,01,55,15.30
2016,04,21,01,56,15.30
2016,04,21,01,57,15.30
2016,04,21,01,58,15.30
2016,04,21,01,59,15.30
2016,04,21,02,00,15.30
2016,04,21,02,01,15.30
2016,04,21,02,02,15.30
2016,04,21,02,03,15.30
2016,04,21,02,04,15.30
2016,04,21,02,05,15.30
2016,04,21,02,06,15.30
2016,04,21,02,07,15.30
2016,04,21,02,08,15.30
2016,04,21,02,09,15.30
2016,04,21,02,10,15.30
2016,04,21,02,11,15.30
2016,04,21,02,12,15.30
2016,04,21,02,13,15.30
2016,04,21,02,14,15.30
2016,04,21,02,15,15.30
2016,04,21,02,16,15.30
2016,04,21,02,17,15.30
2016,04,21,02,18,15.30
2016,04,21,02,19,15.30
2016,04,21,02,20,15.30
2016,04,21,02,21,15.30
2016,04,21,02,22,15.30
2016,04,21,02,23,15.30
2016,04,21,02,24,15.20
2016,04,21,02,25,15.20
2016,04,21,02,26,15.20
2016,04,21,02,27,15.20
2016,04,21,02,28,15.20
2016,04,21,02,29,15.10
2016,04,21,02,30,15.10
2016,04,21,02,31,15.10
2016,04,21,02,32,15.10
2016,04,21,02,33,15.10
2016,04,21,02,34,15.10
2016,04,21,02,35,15.10
2016,04,21,02,36,15.10
2016,04,21,02,37,15.10
2016,04,21,02,38,15.10
2016,04,21,02,39,15.00
2016,04,21,02,40,15.00
2016,04,21,02,41,14.90
2016,04,21,02,42,14.80
2016,04,21,02,43,14.70
2016,04,21,02,44,14.60
2016,04,21,02,45,14.50
2016,04,21,02,46,14.40
2016,04,21,02,47,14.40
2016,04,21,02,48,14.30
2016,04,21,02,49,14.30
2016,04,21,02,50,14.30
2016,04,21,02,51,14.20
2016,04,21,02,52,14.20
2016,04,21,02,53,14.20
2016,04,21,02,54,14.20
2016,04,21,02,55,14.10
2016,04,21,02,56,14.10
2016,04,21,02,57,14.10
2016,04,21,02,58,14.10
2016,04,21,02,59,14.10
2016,04,21,03,00,14.10
2016,04,21,03,01,14.10
2016,04,21,03,02,14.10
2016,04,21,03,03,14.10
2016,04,21,03,04,14.10
2016,04,21,03,05,14.10
2016,04,21,03,06,14.10
2016,04,21,03,07,14.20
2016,04,21,03,08,14.20
2016,04,21,03,09,14.20
2016,04,21,03,10,14.20
2016,04,21,03,11,14.20
2016,04,21,03,12,14.10
2016,04,21,03,13,14.10
2016,04,21,03,14,14.10
2016,04,21,03,15,14.10
2016,04,21,03,16,14.10
2016,04,21,03,17,14.00
2016,04,21,03,18,14.00
2016,04,21,03,19,13.90
2016,04,21,03,20,13.90
2016,04,21,03,21,13.80
2016,04,21,03,22,13.80
2016,04,21,03,23,13.70
2016,04,21,03,24,13.70
2016,04,21,03,25,13.60
2016,04,21,03,26,13.60
2016,04,21,03,27,13.50
2016,04,21,03,28,13.50
2016,04,21,03,29,13.40
2016,04,21,03,30,13.40
2016,04,21,03,31,13.30
2016,04,21,03,32,13.30
2016,04,21,03,33,13.20
2016,04,21,03,34,13.10
2016,04,21,03,35,13.00
2016,04,21,03,36,12.90
2016,04,21,03,37,12.90
2016,04,21,03,38,12.80
2016,04,21,03,39,12.70
2016,04,21,03,40,12.60
2016,04,21,03,41,12.60
2016,04,21,03,42,12.50
2016,04,21,03,43,12.50
2016,04,21,03,44,12.50
2016,04,21,03,45,12.40
2016,04,21,03,46,12.40
2016,04,21,03,47,12.40
2016,04,21,03,48,12.40
2016,04,21,03,49,12.30
2016,04,21,03,50,12.30
2016,04,21,03,51,12.30
2016,04,21,03,52,12.30
2016,04,21,03,53,12.30
2016,04,21,03,54,12.30
2016,04,21,03,55,12.20
2016,04,21,03,56,12.20
2016,04,21,03,57,12.20
2016,04,21,03,58,12.20
2016,04,21,03,59,12.20
2016,04,21,04,00,12.20
2016,04,21,04,01,12.20
2016,04,21,04,02,12.20
2016,04,21,04,03,12.10
2016,04,21,04,04,12.10
2016,04,21,04,05,12.00
2016,04,21,04,06,12.00
2016,04,21,04,07,11.90
2016,04,21,04,08,11.90
2016,04,21,04,09,11.90
2016,04,21,04,10,11.80
2016,04,21,04,11,11.80
2016,04,21,04,12,11.80
2016,04,21,04,13,11.70
2016,04,21,04,14,11.70
2016,04,21,04,15,11.70
2016,04,21,04,16,11.70
2016,04,21,04,17,11.70
2016,04,21,04,18,11.70
2016,04,21,04,19,11.70
2016,04,21,04,20,11.70
2016,04,21,04,21,11.70
2016,04,21,04,22,11.60
2016,04,21,04,23,11.60
2016,04,21,04,24,11.60
2016,04,21,04,25,11.60
2016,04,21,04,26,11.70
2016,04,21,04,27,11.70
2016,04,21,04,28,11.70
2016,04,21,04,29,11.70
2016,04,21,04,30,11.70
2016,04,21,04,31,11.70
2016,04,21,04,32,11.80
2016,04,21,04,33,11.80
2016,04,21,04,34,11.90
2016,04,21,04,35,11.90
2016,04,21,04,36,11.90
2016,04,21,04,37,12.00
2016,04,21,04,38,12.10
2016,04,21,04,39,12.10
2016,04,21,04,40,12.10
2016,04,21,04,41,12.20
2016,04,21,04,42,12.20
2016,04,21,04,43,12.20
2016,04,21,04,44,12.20
2016,04,21,04,45,12.20
2016,04,21,04,46,12.20
2016,04,21,04,47,12.20
2016,04,21,04,48,12.20
2016,04,21,04,49,12.20
2016,04,21,04,50,12.20
2016,04,21,04,51,12.30
2016,04,21,04,52,12.30
2016,04,21,04,53,12.30
2016,04,21,04,54,12.30
2016,04,21,04,55,12.40
2016,04,21,04,56,12.40
2016,04,21,04,57,12.40
2016,04,21,04,58,12.50
2016,04,21,04,59,12.50
2016,04,21,05,00,12.60
2016,04,21,05,01,12.60
2016,04,21,05,02,12.70
2016,04,21,05,03,12.70
2016,04,21,05,04,12.70
2016,04,21,05,05,12.80
2016,04,21,05,06,12.80
2016,04,21,05,07,12.80
2016,04,21,05,08,12.80
2016,04,21,05,09,12.80
2016,04,21,05,10,12.80
2016,04,21,05,11,12.80
2016,04,21,05,12,12.80
2016,04,21,05,13,12.80
2016,04,21,05,14,12.90
2016,04,21,05,15,12.90
2016,04,21,05,16,12.90
2016,04,21,05,17,12.90
2016,04,21,05,18,12.90
2016,04,21,05,19,12.90
2016,04,21,05,20,12.90
2016,04,21,05,21,12.90
2016,04,21,05,22,12.90
2016,04,21,05,23,12.90
2016,04,21,05,24,12.90
2016,04,21,05,25,12.90
2016,04,21,05,26,12.90
2016,04,21,05,27,12.90
2016,04,21,05,28,13.00
2016,04,21,05,29,13.00
2016,04,21,05,30,12.90
2016,04,21,05,31,12.90
2016,04,21,05,32,12.90
2016,04,21,05,33,12.90
2016,04,21,05,34,12.90
2016,04,21,05,35,12.90
2016,04,21,05,36,12.90
2016,04,21,05,37,12.90
2016,04,21,05,38,12.90
2016,04,21,05,39,12.90
2016,04,21,05,40,12.80
2016,04,21,05,41,12.80
2016,04,21,05,42,12.70
2016,04,21,05,43,12.70
2016,04,21,05,44,12.60
2016,04,21,05,45,12.60
2016,04,21,05,46,12.50
2016,04,21,05,47,12.50
2016,04,21,05,48,12.40
2016,04,21,05,49,12.40
2016,04,21,05,50,12.30
2016,04,21,05,51,12.30
2016,04,21,05,52,12.30
2016,04,21,05,53,12.20
2016,04,21,05,54,12.20
2016,04,21,05,55,12.20
2016,04,21,05,56,12.20
2016,04,21,05,57,12.20
2016,04,21,05,58,12.20
2016,04,21,05,59,12.10
2016,04,21,06,00,12.10
2016,04,21,06,01,12.10
2016,04,21,06,02,12.10
2016,04,21,06,03,12.10
2016,04,21,06,04,12.10
2016,04,21,06,05,12.10
2016,04,21,06,06,12.10
2016,04,21,06,07,12.10
2016,04,21,06,08,12.10
2016,04,21,06,09,12.10
2016,04,21,06,10,12.10
2016,04,21,06,11,12.10
2016,04,21,06,12,12.10
2016,04,21,06,13,12.10
2016,04,21,06,14,12.10
2016,04,21,06,15,12.10
2016,04,21,06,16,12.10
2016,04,21,06,17,12.10
2016,04,21,06,18,12.10
2016,04,21,06,19,12.10
2016,04,21,06,20,12.10
2016,04,21,06,21,12.10
2016,04,21,06,22,12.10
2016,04,21,06,23,12.00
2016,04,21,06,24,12.00
2016,04,21,06,25,11.90
2016,04,21,06,26,11.90
2016,04,21,06,27,11.90
2016,04,21,06,28,11.90
2016,04,21,06,29,11.80
2016,04,21,06,30,11.80
2016,04,21,06,31,11.80
2016,04,21,06,32,11.80
2016,04,21,06,33,11.70
2016,04,21,06,34,11.70
2016,04,21,06,35,11.70
2016,04,21,06,36,11.70
2016,04,21,06,37,11.70
2016,04,21,06,38,11.70
2016,04,21,06,39,11.60
2016,04,21,06,40,11.60
2016,04,21,06,41,11.60
2016,04,21,06,42,11.70
2016,04,21,06,43,11.70
2016,04,21,06,44,11.70
2016,04,21,06,45,11.70
2016,04,21,06,46,11.70
2016,04,21,06,47,11.70
2016,04,21,06,48,11.70
2016,04,21,06,49,11.70
2016,04,21,06,50,11.70
2016,04,21,06,51,11.70
2016,04,21,06,52,11.70
2016,04,21,06,53,11.70
2016,04,21,06,54,11.70
2016,04,21,06,55,11.70
2016,04,21,06,56,11.70
2016,04,21,06,57,11.80
2016,04,21,06,58,11.80
2016,04,21,06,59,11.80
2016,04,21,07,00,11.80
2016,04,21,07,01,11.90
2016,04,21,07,02,11.90
2016,04,21,07,03,11.90
2016,04,21,07,04,11.90
2016,04,21,07,05,11.90
2016,04,21,07,06,12.00
2016,04,21,07,07,12.00
2016,04,21,07,08,12.00
2016,04,21,07,09,12.10
2016,04,21,07,10,12.10
2016,04,21,07,11,12.10
2016,04,21,07,12,12.10
2016,04,21,07,13,12.20
2016,04,21,07,14,12.20
2016,04,21,07,15,12.20
2016,04,21,07,16,12.20
2016,04,21,07,17,12.30
2016,04,21,07,18,12.30
2016,04,21,07,19,12.30
2016,04,21,07,20,12.40
2016,04,21,07,21,12.40
2016,04,21,07,22,12.40
2016,04,21,07,23,12.50
2016,04,21,07,24,12.50
2016,04,21,07,25,12.60
2016,04,21,07,26,12.60
2016,04,21,07,27,12.60
2016,04,21,07,28,12.70
2016,04,21,07,29,12.70
2016,04,21,07,30,12.70
2016,04,21,07,31,12.70
2016,04,21,07,32,12.80
2016,04,21,07,33,12.80
2016,04,21,07,34,12.80
2016,04,21,07,35,12.90
2016,04,21,07,36,12.90
2016,04,21,07,37,12.90
2016,04,21,07,38,13.00
2016,04,21,07,39,13.00
2016,04,21,07,40,13.10
2016,04,21,07,41,13.10
2016,04,21,07,42,13.20
2016,04,21,07,43,13.20
2016,04,21,07,44,13.20
2016,04,21,07,45,13.30
2016,04,21,07,46,13.30
2016,04,21,07,47,13.40
2016,04,21,07,48,13.40
2016,04,21,07,49,13.50
2016,04,21,07,50,13.50
2016,04,21,07,51,13.60
2016,04,21,07,52,13.60
2016,04,21,07,53,13.70
2016,04,21,07,54,13.70
2016,04,21,07,55,13.70
2016,04,21,07,56,13.70
2016,04,21,07,57,13.80
2016,04,21,07,58,13.80
2016,04,21,07,59,13.80
2016,04,21,08,00,13.80
2016,04,21,08,01,13.80
2016,04,21,08,02,13.80
2016,04,21,08,03,13.80
2016,04,21,08,04,13.80
2016,04,21,08,05,13.90
2016,04,21,08,06,13.90
2016,04,21,08,07,13.90
2016,04,21,08,08,13.90
2016,04,21,08,09,13.90
2016,04,21,08,10,13.90
2016,04,21,08,11,14.00
2016,04,21,08,12,14.00
2016,04,21,08,13,14.10
2016,04,21,08,14,14.20
2016,04,21,08,15,14.10
2016,04,21,08,16,14.10
2016,04,21,08,17,14.10
2016,04,21,08,18,14.10
2016,04,21,08,19,14.10
2016,04,21,08,20,14.10
2016,04,21,08,21,14.00
2016,04,21,08,22,14.00
2016,04,21,08,23,14.00
2016,04,21,08,24,14.00
2016,04,21,08,25,14.00
2016,04,21,08,26,14.00
2016,04,21,08,27,14.10
2016,04,21,08,28,14.10
2016,04,21,08,29,14.10
2016,04,21,08,30,14.10
2016,04,21,08,31,14.10
2016,04,21,08,32,14.10
2016,04,21,08,33,14.10
2016,04,21,08,34,14.10
2016,04,21,08,35,14.10
2016,04,21,08,36,14.00
2016,04,21,08,37,14.00
2016,04,21,08,38,14.00
2016,04,21,08,39,13.90
2016,04,21,08,40,13.90
2016,04,21,08,41,13.90
2016,04,21,08,42,13.90
2016,04,21,08,43,13.90
2016,04,21,08,44,13.90
2016,04,21,08,45,14.00
2016,04,21,08,46,14.00
2016,04,21,08,47,13.90
2016,04,21,08,48,13.90
2016,04,21,08,49,14.00
2016,04,21,08,50,14.00
2016,04,21,08,51,14.00
2016,04,21,08,52,14.00
2016,04,21,08,53,14.00
2016,04,21,08,54,14.00
2016,04,21,08,55,14.10
2016,04,21,08,56,14.10
2016,04,21,08,57,14.20
2016,04,21,08,58,14.20
2016,04,21,08,59,14.20
2016,04,21,09,00,14.30
2016,04,21,09,01,14.30
2016,04,21,09,02,14.30
2016,04,21,09,03,14.40
2016,04,21,09,04,14.40
2016,04,21,09,05,14.50
2016,04,21,09,06,14.60
2016,04,21,09,07,14.60
2016,04,21,09,08,14.70
2016,04,21,09,09,14.70
2016,04,21,09,10,14.70
2016,04,21,09,11,14.70
2016,04,21,09,12,14.70
2016,04,21,09,13,14.70
2016,04,21,09,14,14.70
2016,04,21,09,15,14.70
2016,04,21,09,16,14.70
2016,04,21,09,17,14.70
2016,04,21,09,18,14.70
2016,04,21,09,19,14.70
2016,04,21,09,20,14.70
2016,04,21,09,21,14.70
2016,04,21,09,22,14.70
2016,04,21,09,23,14.70
2016,04,21,09,24,14.80
2016,04,21,09,25,14.80
2016,04,21,09,26,14.80
2016,04,21,09,27,14.80
2016,04,21,09,28,14.80
2016,04,21,09,29,14.80
2016,04,21,09,30,14.80
2016,04,21,09,31,14.80
2016,04,21,09,32,14.90
2016,04,21,09,33,14.90
2016,04,21,09,34,14.90
2016,04,21,09,35,15.00
2016,04,21,09,36,15.00
2016,04,21,09,37,15.10
2016,04,21,09,38,15.10
2016,04,21,09,39,15.20
2016,04,21,09,40,15.20
2016,04,21,09,41,15.30
2016,04,21,09,42,15.30
2016,04,21,09,43,15.30
2016,04,21,09,44,15.30
2016,04,21,09,45,15.30
2016,04,21,09,46,15.30
2016,04,21,09,47,15.30
2016,04,21,09,48,15.30
2016,04,21,09,49,15.40
2016,04,21,09,50,15.40
2016,04,21,09,51,15.50
2016,04,21,09,52,15.50
2016,04,21,09,53,15.60
2016,04,21,09,54,15.60
2016,04,21,09,55,15.60
2016,04,21,09,56,15.60
2016,04,21,09,57,15.70
2016,04,21,09,58,15.70
2016,04,21,09,59,15.70
2016,04,21,10,00,15.80
2016,04,21,10,01,15.80
2016,04,21,10,02,15.80
2016,04,21,10,03,15.90
2016,04,21,10,04,15.90
2016,04,21,10,05,15.90
2016,04,21,10,06,15.90
2016,04,21,10,07,15.90
2016,04,21,10,08,15.90
2016,04,21,10,09,16.00
2016,04,21,10,10,16.00
2016,04,21,10,11,16.00
2016,04,21,10,12,16.10
2016,04,21,10,13,16.10
2016,04,21,10,14,16.10
2016,04,21,10,15,16.00
2016,04,21,10,16,15.90
2016,04,21,10,17,15.90
2016,04,21,10,18,15.90
2016,04,21,10,19,15.90
2016,04,21,10,20,15.90
2016,04,21,10,21,15.90
2016,04,21,10,22,15.90
2016,04,21,10,23,16.00
2016,04,21,10,24,16.10
2016,04,21,10,25,16.10
2016,04,21,10,26,16.10
2016,04,21,10,27,16.00
2016,04,21,10,28,15.90
2016,04,21,10,29,15.80
2016,04,21,10,30,15.80
2016,04,21,10,31,15.80
2016,04,21,10,32,15.80
2016,04,21,10,33,15.80
2016,04,21,10,34,15.80
2016,04,21,10,35,15.80
2016,04,21,10,36,15.80
2016,04,21,10,37,15.90
2016,04,21,10,38,16.00
2016,04,21,10,39,16.00
2016,04,21,10,40,16.00
2016,04,21,10,41,16.00
2016,04,21,10,42,16.00
2016,04,21,10,43,16.00
2016,04,21,10,44,16.00
2016,04,21,10,45,15.90
2016,04,21,10,46,15.90
2016,04,21,10,47,15.80
2016,04,21,10,48,15.90
2016,04,21,10,49,15.90
2016,04,21,10,50,15.90
2016,04,21,10,51,15.90
2016,04,21,10,52,15.90
2016,04,21,10,53,15.90
2016,04,21,10,54,15.90
2016,04,21,10,55,15.90
2016,04,21,10,56,15.90
2016,04,21,10,57,15.80
2016,04,21,10,58,15.80
2016,04,21,10,59,15.90
2016,04,21,11,00,15.90
2016,04,21,11,01,16.00
2016,04,21,11,02,16.10
2016,04,21,11,03,16.20
2016,04,21,11,04,16.20
2016,04,21,11,05,16.10
2016,04,21,11,06,16.10
2016,04,21,11,07,16.10
2016,04,21,11,08,16.10
2016,04,21,11,09,16.20
2016,04,21,11,10,16.30
2016,04,21,11,11,16.40
2016,04,21,11,12,16.50
2016,04,21,11,13,16.50
2016,04,21,11,14,16.50
2016,04,21,11,15,16.40
2016,04,21,11,16,16.20
2016,04,21,11,17,16.10
2016,04,21,11,18,16.10
2016,04,21,11,19,16.10
2016,04,21,11,20,16.20
2016,04,21,11,21,16.20
2016,04,21,11,22,16.20
2016,04,21,11,23,16.20
2016,04,21,11,24,16.30
2016,04,21,11,25,16.40
2016,04,21,11,26,16.50
2016,04,21,11,27,16.50
2016,04,21,11,28,16.50
2016,04,21,11,29,16.60
2016,04,21,11,30,16.70
2016,04,21,11,31,16.80
2016,04,21,11,32,16.80
2016,04,21,11,33,16.90
2016,04,21,11,34,17.00
2016,04,21,11,35,17.20
2016,04,21,11,36,17.20
2016,04,21,11,37,17.20
2016,04,21,11,38,17.10
2016,04,21,11,39,17.00
2016,04,21,11,40,16.80
2016,04,21,11,41,16.70
2016,04,21,11,42,16.50
2016,04,21,11,43,16.40
2016,04,21,11,44,16.20
2016,04,21,11,45,16.00
2016,04,21,11,46,15.90
2016,04,21,11,47,15.70
2016,04,21,11,48,15.60
2016,04,21,11,49,15.60
2016,04,21,11,50,15.50
2016,04,21,11,51,15.40
2016,04,21,11,52,15.30
2016,04,21,11,53,15.30
2016,04,21,11,54,15.30
2016,04,21,11,55,15.30
2016,04,21,11,56,15.30
2016,04,21,11,57,15.30
2016,04,21,11,58,15.30
2016,04,21,11,59,15.30
2016,04,21,12,00,15.40
2016,04,21,12,01,15.40
2016,04,21,12,02,15.40
2016,04,21,12,03,15.40
2016,04,21,12,04,15.40
2016,04,21,12,05,15.40
2016,04,21,12,06,15.30
2016,04,21,12,07,15.30
2016,04,21,12,08,15.30
2016,04,21,12,09,15.20
2016,04,21,12,10,15.10
2016,04,21,12,11,15.00
2016,04,21,12,12,15.00
2016,04,21,12,13,15.00
2016,04,21,12,14,14.90
2016,04,21,12,15,14.90
2016,04,21,12,16,15.00
2016,04,21,12,17,15.00
2016,04,21,12,18,15.10
2016,04,21,12,19,15.10
2016,04,21,12,20,15.10
2016,04,21,12,21,15.10
2016,04,21,12,22,15.00
2016,04,21,12,23,15.00
2016,04,21,12,24,14.90
2016,04,21,12,25,14.90
2016,04,21,12,26,14.80
2016,04,21,12,27,14.90
2016,04,21,12,28,15.00
2016,04,21,12,29,15.20
2016,04,21,12,30,15.30
2016,04,21,12,31,15.30
2016,04,21,12,32,15.20
2016,04,21,12,33,15.10
2016,04,21,12,34,15.10
2016,04,21,12,35,15.10
2016,04,21,12,36,15.00
2016,04,21,12,37,14.90
2016,04,21,12,38,14.90
2016,04,21,12,39,14.90
2016,04,21,12,40,14.90
2016,04,21,12,41,14.80
2016,04,21,12,42,14.80
2016,04,21,12,43,14.80
2016,04,21,12,44,14.80
2016,04,21,12,45,14.80
2016,04,21,12,46,14.80
2016,04,21,12,47,14.70
2016,04,21,12,48,14.70
2016,04,21,12,49,14.80
2016,04,21,12,50,14.90
2016,04,21,12,51,14.90
2016,04,21,12,52,14.90
2016,04,21,12,53,14.80
2016,04,21,12,54,14.70
2016,04,21,12,55,14.60
2016,04,21,12,56,14.50
2016,04,21,12,57,14.50
2016,04,21,12,58,14.40
2016,04,21,12,59,14.20
2016,04,21,13,00,14.10
2016,04,21,13,01,14.00
2016,04,21,13,02,13.90
2016,04,21,13,03,13.80
2016,04,21,13,04,13.90
2016,04,21,13,05,13.90
2016,04,21,13,06,13.80
2016,04,21,13,07,13.80
2016,04,21,13,08,13.70
2016,04,21,13,09,13.70
2016,04,21,13,10,13.80
2016,04,21,13,11,13.80
2016,04,21,13,12,13.80
2016,04,21,13,13,13.80
2016,04,21,13,14,13.80
2016,04,21,13,15,13.80
2016,04,21,13,16,13.80
2016,04,21,13,17,13.80
2016,04,21,13,18,13.90
2016,04,21,13,19,14.00
2016,04,21,13,20,14.10
2016,04,21,13,21,14.20
2016,04,21,13,22,14.30
2016,04,21,13,23,14.30
2016,04,21,13,24,14.30
2016,04,21,13,25,14.30
2016,04,21,13,26,14.10
2016,04,21,13,27,14.00
2016,04,21,13,28,13.80
2016,04,21,13,29,13.70
2016,04,21,13,30,13.50
2016,04,21,13,31,13.30
2016,04,21,13,32,13.20
2016,04,21,13,33,13.10
2016,04,21,13,34,13.10
2016,04,21,13,35,13.00
2016,04,21,13,36,12.90
2016,04,21,13,37,12.90
2016,04,21,13,38,12.80
2016,04,21,13,39,12.80
2016,04,21,13,40,12.70
2016,04,21,13,41,12.70
2016,04,21,13,42,12.80
2016,04,21,13,43,12.80
2016,04,21,13,44,12.80
2016,04,21,13,45,12.90
2016,04,21,13,46,13.00
2016,04,21,13,47,13.10
2016,04,21,13,48,13.20
2016,04,21,13,49,13.30
2016,04,21,13,50,13.50
2016,04,21,13,51,13.60
2016,04,21,13,52,13.70
2016,04,21,13,53,13.80
2016,04,21,13,54,13.80
2016,04,21,13,55,13.80
2016,04,21,13,56,13.90
2016,04,21,13,57,13.90
2016,04,21,13,58,14.00
2016,04,21,13,59,14.10
2016,04,21,14,00,14.20
2016,04,21,14,01,14.30
2016,04,21,14,02,14.40
2016,04,21,14,03,14.50
2016,04,21,14,04,14.70
2016,04,21,14,05,14.90
2016,04,21,14,06,15.00
2016,04,21,14,07,15.10
2016,04,21,14,08,15.20
2016,04,21,14,09,15.30
2016,04,21,14,10,15.30
2016,04,21,14,11,15.30
2016,04,21,14,12,15.40
2016,04,21,14,13,15.40
2016,04,21,14,14,15.60
2016,04,21,14,15,15.80
2016,04,21,14,16,15.80
2016,04,21,14,17,15.80
2016,04,21,14,18,15.70
2016,04,21,14,19,15.70
2016,04,21,14,20,15.80
2016,04,21,14,21,15.80
2016,04,21,14,22,15.90
2016,04,21,14,23,16.00
2016,04,21,14,24,16.10
2016,04,21,14,25,16.20
2016,04,21,14,26,16.30
2016,04,21,14,27,16.40
2016,04,21,14,28,16.50
2016,04,21,14,29,16.60
2016,04,21,14,30,16.70
2016,04,21,14,31,16.70
2016,04,21,14,32,16.80
2016,04,21,14,33,16.80
2016,04,21,14,34,16.90
2016,04,21,14,35,17.00
2016,04,21,14,36,17.10
2016,04,21,14,37,17.20
2016,04,21,14,38,17.20
2016,04,21,14,39,17.30
2016,04,21,14,40,17.30
2016,04,21,14,41,17.30
2016,04,21,14,42,17.40
2016,04,21,14,43,17.40
2016,04,21,14,44,17.40
2016,04,21,14,45,17.30
2016,04,21,14,46,17.30
2016,04,21,14,47,17.30
2016,04,21,14,48,17.30
2016,04,21,14,49,17.30
2016,04,21,14,50,17.40
2016,04,21,14,51,17.40
2016,04,21,14,52,17.30
2016,04,21,14,53,17.30
2016,04,21,14,54,17.20
2016,04,21,14,55,17.10
2016,04,21,14,56,17.10
2016,04,21,14,57,17.00
2016,04,21,14,58,17.00
2016,04,21,14,59,17.10
2016,04,21,15,00,17.10
2016,04,21,15,01,17.20
2016,04,21,15,02,17.30
2016,04,21,15,03,17.40
2016,04,21,15,04,17.50
2016,04,21,15,05,17.40
2016,04,21,15,06,17.40
2016,04,21,15,07,17.30
2016,04,21,15,08,17.20
2016,04,21,15,09,17.10
2016,04,21,15,10,17.10
2016,04,21,15,11,17.10
2016,04,21,15,12,17.10
2016,04,21,15,13,17.10
2016,04,21,15,14,17.10
2016,04,21,15,15,17.10
2016,04,21,15,16,17.20
2016,04,21,15,17,17.20
2016,04,21,15,18,17.20
2016,04,21,15,19,17.10
2016,04,21,15,20,17.10
2016,04,21,15,21,17.10
2016,04,21,15,22,17.00
2016,04,21,15,23,16.90
2016,04,21,15,24,16.70
2016,04,21,15,25,16.60
2016,04,21,15,26,16.50
2016,04,21,15,27,16.40
2016,04,21,15,28,16.40
2016,04,21,15,29,16.40
2016,04,21,15,30,16.40
2016,04,21,15,31,16.30
2016,04,21,15,32,16.10
2016,04,21,15,33,16.00
2016,04,21,15,34,15.80
2016,04,21,15,35,15.70
2016,04,21,15,36,15.60
2016,04,21,15,37,15.50
2016,04,21,15,38,15.40
2016,04,21,15,39,15.30
2016,04,21,15,40,15.20
2016,04,21,15,41,15.20
2016,04,21,15,42,15.30
2016,04,21,15,43,15.30
2016,04,21,15,44,15.40
2016,04,21,15,45,15.50
2016,04,21,15,46,15.50
2016,04,21,15,47,15.50
2016,04,21,15,48,15.50
2016,04,21,15,49,15.40
2016,04,21,15,50,15.40
2016,04,21,15,51,15.50
2016,04,21,15,52,15.50
2016,04,21,15,53,15.60
2016,04,21,15,54,15.70
2016,04,21,15,55,15.80
2016,04,21,15,56,15.90
2016,04,21,15,57,16.10
2016,04,21,15,58,16.10
2016,04,21,15,59,16.10
2016,04,21,16,00,16.10
2016,04,21,16,01,16.10
2016,04,21,16,02,16.10
2016,04,21,16,03,16.10
2016,04,21,16,04,16.10
2016,04,21,16,05,16.20
2016,04,21,16,06,16.30
2016,04,21,16,07,16.40
2016,04,21,16,08,16.50
2016,04,21,16,09,16.60
2016,04,21,16,10,16.60
2016,04,21,16,11,16.60
2016,04,21,16,12,16.60
2016,04,21,16,13,16.60
2016,04,21,16,14,16.70
2016,04,21,16,15,16.70
2016,04,21,16,16,16.70
2016,04,21,16,17,16.70
2016,04,21,16,18,16.70
2016,04,21,16,19,16.70
2016,04,21,16,20,16.70
2016,04,21,16,21,16.80
2016,04,21,16,22,16.80
2016,04,21,16,23,16.80
2016,04,21,16,24,16.80
2016,04,21,16,25,16.80
2016,04,21,16,26,16.80
2016,04,21,16,27,16.90
2016,04,21,16,28,16.90
2016,04,21,16,29,17.00
2016,04,21,16,30,17.00
2016,04,21,16,31,17.00
2016,04,21,16,32,17.10
2016,04,21,16,33,17.10
2016,04,21,16,34,17.20
2016,04,21,16,35,17.30
2016,04,21,16,36,17.20
2016,04,21,16,37,17.20
2016,04,21,16,38,17.20
2016,04,21,16,39,17.20
2016,04,21,16,40,17.20
2016,04,21,16,41,17.20
2016,04,21,16,42,17.10
2016,04,21,16,43,17.00
2016,04,21,16,44,17.00
2016,04,21,16,45,17.10
2016,04,21,16,46,17.10
2016,04,21,16,47,17.10
2016,04,21,16,48,17.10
2016,04,21,16,49,17.10
2016,04,21,16,50,17.10
2016,04,21,16,51,17.00
2016,04,21,16,52,16.90
2016,04,21,16,53,16.80
2016,04,21,16,54,16.80
2016,04,21,16,55,16.80
2016,04,21,16,56,16.80
2016,04,21,16,57,16.90
2016,04,21,16,58,17.00
2016,04,21,16,59,17.00
2016,04,21,17,00,17.10
2016,04,21,17,01,17.10
2016,04,21,17,02,17.10
2016,04,21,17,03,17.10
2016,04,21,17,04,17.00
2016,04,21,17,05,16.80
2016,04,21,17,06,16.70
2016,04,21,17,07,16.70
2016,04,21,17,08,16.60
2016,04,21,17,09,16.60
2016,04,21,17,10,16.60
2016,04,21,17,11,16.60
2016,04,21,17,12,16.50
2016,04,21,17,13,16.60
2016,04,21,17,14,16.60
2016,04,21,17,15,16.70
2016,04,21,17,16,16.70
2016,04,21,17,17,16.80
2016,04,21,17,18,16.90
2016,04,21,17,19,17.00